Content
SEND FEEDBACK

Daily
Averages
Monthly
Summary
United States of America

HAZLETON, PENNSYLVANIA


Home > North America > United States > Pennsylvania
Elevation: 1785 feet     Latitude: 41 01N     Longitude: 075 54W

WEATHER
 
SELECT A DAY
Number of Records: 216,310;   Date Range: 1/1/95 - 9/18/14
 
SHARE

PRINT THIS DATA

[ ← Previous Day ]
WEATHER ALMANAC - SEPTEMBER 1, 2013
[ Next Day → ]
[ °C ]   °F
Weather ElementAverageHighLow
Temperature74.6 °F82.9 °F (1:54 pm)68 °F (5:54 am)
Dewpoint67.6 °F70 °F (7:54 pm)64.9 °F (6:54 am)
Humidity79.7 %94 % (6:45 am)60 % (1:54 pm)
Barometer29.82 in29.86 in (6:45 am)29.78 in (6:54 pm)
Wind Speed1.7 mph8.1 mph (2:54 pm)
Weather ElementAverage
Visibility6.4 mi
Wind DirectionNE (40 °)

Weather ElementTotal
Precipitation---
Cooling Degree Days10.5 (Base 65)
Growing Degree Days25.5 (Base 50)
Averaged from 28 records on September 1, 2013
WEATHER CONDITIONS BREAKOUT
WIND DIRECTION BREAKOUT
WEATHER BY HOUR - SEPTEMBER 1, 2013
[ °C ]   °F
Local TimeTemperatureDewpointHumidityBarometerVisibilityWind DirectionWind SpeedGust SpeedPrecipitationEventsConditions
1:54 AM71.1 °F68.0 °F90 %29.80 in4.0 miCalmClear
2:54 AM70.0 °F66.9 °F90 %29.79 in4.0 miCalmClear
3:54 AM70.0 °F66.9 °F90 %29.80 in6.0 miEast (90°)3.5 mphClear
4:54 AM70.0 °F66.9 °F90 %29.81 in5.0 miCalmClear
5:54 AM68.0 °F66.0 °F93 %29.82 in4.0 miCalmMostly Cloudy
6:45 AM68.0 °F66.2 °F94 %29.86 in2.5 miCalmPartly Cloudy
6:54 AM68.0 °F64.9 °F90 %29.83 in2.0 miCalmClear
7:19 AM68.0 °F66.2 °F94 %29.86 in3.0 miCalmClear
7:30 AM68.0 °F66.2 °F94 %29.86 in2.5 miCalmClear
7:38 AM69.8 °F66.2 °F88 %29.86 in3.0 miCalmClear
7:54 AM70.0 °F66.9 °F90 %29.84 in4.0 miCalmClear
8:54 AM73.0 °F68.0 °F84 %29.84 in6.0 miCalmHaze
9:54 AM75.0 °F68.0 °F79 %29.84 in6.0 miCalmHaze
10:54 AM75.9 °F68.0 °F76 %29.85 in7.0 miCalmMostly Cloudy
11:54 AM79.0 °F69.1 °F72 %29.84 in8.0 miNNW (330°)6.9 mphMostly Cloudy
12:41 PM80.6 °F68.0 °F65 %29.85 in8.0 miCalmScattered Clouds
12:54 PM82.0 °F68.0 °F62 %29.82 in8.0 miCalmPartly Cloudy
1:54 PM82.9 °F68.0 °F60 %29.81 in8.0 miVariable3.5 mphPartly Cloudy
2:54 PM75.9 °F66.9 °F74 %29.81 in10.0 miSE (130°)8.1 mph0.00 inRainLight Rain
3:54 PM82.0 °F69.1 °F65 %29.79 in8.0 miVariable4.6 mph0.00 inClear
4:54 PM82.0 °F66.9 °F60 %29.80 in10.0 miVariable5.8 mphClear
5:54 PM82.0 °F69.1 °F65 %29.79 in9.0 miSW (220°)4.6 mphMostly Cloudy
6:54 PM80.1 °F69.1 °F69 %29.78 in8.0 miCalmClear
7:54 PM78.1 °F70.0 °F76 %29.78 in8.0 miSE (130°)4.6 mphClear
8:54 PM75.9 °F70.0 °F82 %29.81 in8.0 miCalmClear
9:54 PM75.9 °F68.0 °F76 %29.81 in9.0 miCalmScattered Clouds
10:54 PM75.0 °F68.0 °F79 %29.80 in9.0 miCalmClear
11:54 PM73.0 °F68.0 °F84 %29.80 in9.0 miSW (220°)4.6 mphMostly Cloudy
Hourly data recorded from KAVP, located miles away from Hazleton, Pennsylvania







STORIES FROM OUR PARTNERS